, SD

(GMT )
Rapid City

Weather History for KRAP - July, 2013

Change the Weather History Date:

Thursday, July 25, 2013

  Actual Average Record
Temperature  
Mean Temperature 71 °F 74 °F  
Max Temperature 84 °F 89 °F 105 °F (1987)
Min Temperature 57 °F 59 °F 47 °F (1996)
Degree Days  
Heating Degree Days 0 0  
Month to date heating degree days 0 10  
Since 1 June heating degree days 80 109  
Since 1 July heating degree days 0 10  
Cooling Degree Days 6 9  
Month to date cooling degree days 246 196  
Year to date cooling degree days 324 295  
Since 1 June cooling degree days 316 280  
Growing Degree Days 20 (Base 50)    
Moisture  
Dew Point 55 °F    
Average Humidity 63    
Maximum Humidity 93    
Minimum Humidity 33    
Precipitation  
Precipitation 0.05 in 0.07 in 1.31 in (1981)
Month to date precipitation 1.66 1.45  
Year to date precipitation 11.44 10.67  
Snow  
Snow 0.00 in 0.00 in 0.00 in ()
Month to date snowfall 0.0 0.0  
Since 1 June snowfall 0.0 0.0  
Since 1 July snowfall 0.0 0.0  
Snow Depth 0.00 in    
Sea Level Pressure  
Sea Level Pressure 30.06 in    
Wind  
Wind Speed 13 mph (North)    
Max Wind Speed 39 mph    
Max Gust Speed 53 mph    
Visibility 10 miles    
Events Rain , Thunderstorm    
T = Trace of Precipitation, MM = Missing Value Source: NWS Daily Summary

Daily Weather History Graph

Daily Weather History Graph

Search for Another Location

Airport or City:

Trip Planner

Search our weather history database for the weather conditions in past years. The results will help you decide how hot, cold, wet, or windy it might be!

Date:

Astronomy

Jul. 25, 2013 Rise Set
Actual Time 5:33 AM MDT 8:23 PM MDT
Civil Twilight 4:59 AM MDT 8:57 PM MDT
Nautical Twilight 4:16 AM MDT 9:40 PM MDT
Astronomical Twilight 3:26 AM MDT 10:29 PM MDT
Moon 9:54 PM MDT (7/25) 9:14 AM MDT (7/25)
Length of Visible Light 15h 58m
Length of Day
14h 50m
Waning Gibbous, 88% of the Moon is Illuminated
Jul 25
Waning Gibbous
Jul 29
Last Quarter
Aug 6
New
Aug 14
First Quarter
Aug 20
Full

Hourly Weather History & Observations

Time (MDT) Temp. Heat Index Dew Point Humidity Pressure Visibility Wind Dir Wind Speed Gust Speed Precip Events Conditions
12:52 AM 64.0 °F - 55.0 °F 73% 29.94 in 10.0 mi Calm Calm - N/A   Clear
1:52 AM 66.0 °F - 57.0 °F 73% 29.92 in 10.0 mi SSE 8.1 mph - N/A   Clear
2:52 AM 68.0 °F - 57.0 °F 68% 29.89 in 10.0 mi South 15.0 mph - N/A   Clear
3:38 AM 66.2 °F - 55.4 °F 68% 30.08 in 10.0 mi NNW 39.1 mph 52.9 mph N/A   Squalls
3:52 AM 57.9 °F - 55.0 °F 90% 30.01 in 10.0 mi North 35.7 mph 47.2 mph 0.00 in Rain Light Rain
4:08 AM 57.2 °F - 55.4 °F 94% 30.10 in 10.0 mi NNW 26.5 mph 42.6 mph 0.00 in Rain , Thunderstorm Light Thunderstorms and Rain
4:25 AM 59.0 °F - 55.4 °F 88% 30.12 in 10.0 mi NW 21.9 mph 32.2 mph 0.00 in Rain , Thunderstorm Light Rain
4:52 AM 59.0 °F - 57.0 °F 93% 30.00 in 9.0 mi North 19.6 mph 26.5 mph 0.05 in Rain Light Rain
5:40 AM 59.0 °F - 57.2 °F 94% 30.11 in 10.0 mi NNW 9.2 mph - 0.00 in Thunderstorm Mostly Cloudy
5:52 AM 60.1 °F - 57.0 °F 90% 30.03 in 10.0 mi NW 5.8 mph - 0.00 in   Mostly Cloudy
6:52 AM 61.0 °F - 57.0 °F 87% 30.05 in 10.0 mi WNW 6.9 mph - N/A   Overcast
7:13 AM 60.8 °F - 57.2 °F 88% 30.11 in 10.0 mi West 6.9 mph - N/A   Mostly Cloudy
7:40 AM 62.6 °F - 57.2 °F 82% 30.10 in 10.0 mi Calm Calm - N/A   Mostly Cloudy
7:52 AM 63.0 °F - 57.0 °F 81% 30.02 in 10.0 mi Calm Calm - N/A   Overcast
8:27 AM 64.4 °F - 57.2 °F 77% 30.10 in 10.0 mi North 4.6 mph - N/A   Scattered Clouds
8:52 AM 66.0 °F - 57.9 °F 75% 30.04 in 10.0 mi ENE 8.1 mph - N/A   Partly Cloudy
9:14 AM 66.2 °F - 57.2 °F 73% 30.11 in 10.0 mi NNE 5.8 mph - N/A   Mostly Cloudy
9:52 AM 68.0 °F - 59.0 °F 73% 30.05 in 10.0 mi Variable 3.5 mph - N/A   Mostly Cloudy
10:31 AM 71.6 °F - 59.0 °F 64% 30.13 in 10.0 mi NNE 8.1 mph - N/A   Scattered Clouds
10:52 AM 72.0 °F - 59.0 °F 64% 30.07 in 10.0 mi NNE 8.1 mph - N/A   Partly Cloudy
11:52 AM 75.9 °F - 57.9 °F 54% 30.06 in 10.0 mi North 10.4 mph - N/A   Clear
12:52 PM 81.0 °F 80.7 °F 55.0 °F 41% 30.06 in 10.0 mi NNW 16.1 mph 23.0 mph N/A   Clear
1:52 PM 82.9 °F 82.0 °F 55.0 °F 38% 30.05 in 10.0 mi NNW 16.1 mph 25.3 mph N/A   Partly Cloudy
2:52 PM 82.9 °F 81.8 °F 53.1 °F 36% 30.05 in 10.0 mi NNW 17.3 mph 23.0 mph N/A   Partly Cloudy
3:52 PM 82.0 °F - 51.1 °F 34% 30.06 in 10.0 mi NNW 17.3 mph 24.2 mph N/A   Clear
4:52 PM 82.0 °F - 52.0 °F 35% 30.06 in 10.0 mi North 17.3 mph 24.2 mph N/A   Scattered Clouds
5:52 PM 82.0 °F - 50.0 °F 33% 30.06 in 10.0 mi North 15.0 mph - N/A   Partly Cloudy
6:52 PM 80.1 °F - 48.9 °F 34% 30.05 in 10.0 mi NNW 12.7 mph - N/A   Clear
7:52 PM 75.0 °F - 48.9 °F 40% 30.08 in 10.0 mi NNE 10.4 mph - N/A   Clear
8:52 PM 69.1 °F - 50.0 °F 51% 30.10 in 10.0 mi NNE 9.2 mph - N/A   Clear
9:52 PM 64.9 °F - 50.0 °F 58% 30.13 in 10.0 mi NNE 11.5 mph - N/A   Clear
10:52 PM 62.1 °F - 50.0 °F 65% 30.16 in 10.0 mi North 9.2 mph - N/A   Clear
11:52 PM 57.9 °F - 50.0 °F 75% 30.18 in 10.0 mi NNW 5.8 mph - N/A   Clear